Index of /20260501/WXO-DD/model_gdps/15km/00/063
Name Last modified Size Description
Parent Directory -
20260501T00Z_MSC_GDPS_AbsoluteVorticity_IsbL-0200_LatLon0.15_PT063H.grib2 2026-05-01 04:15 1.5M
20260501T00Z_MSC_GDPS_AbsoluteVorticity_IsbL-0250_LatLon0.15_PT063H.grib2 2026-05-01 04:15 1.3M
20260501T00Z_MSC_GDPS_AbsoluteVorticity_IsbL-0500_LatLon0.15_PT063H.grib2 2026-05-01 04:15 1.4M
20260501T00Z_MSC_GDPS_AbsoluteVorticity_IsbL-0700_LatLon0.15_PT063H.grib2 2026-05-01 04:15 1.3M
20260501T00Z_MSC_GDPS_AbsoluteVorticity_IsbL-0850_LatLon0.15_PT063H.grib2 2026-05-01 04:15 1.6M
20260501T00Z_MSC_GDPS_AirTemp_AGL-120m_LatLon0.15_PT063H.grib2 2026-05-01 04:15 907K
20260501T00Z_MSC_GDPS_AirTemp_AGL-2m_LatLon0.15_PT063H.grib2 2026-05-01 04:15 1.0M
20260501T00Z_MSC_GDPS_AirTemp_AGL-40m_LatLon0.15_PT063H.grib2 2026-05-01 04:15 811K
20260501T00Z_MSC_GDPS_AirTemp_AGL-80m_LatLon0.15_PT063H.grib2 2026-05-01 04:15 799K
20260501T00Z_MSC_GDPS_AirTemp_IsbL-0001_LatLon0.15_PT063H.grib2 2026-05-01 04:15 649K
20260501T00Z_MSC_GDPS_AirTemp_IsbL-0005_LatLon0.15_PT063H.grib2 2026-05-01 04:15 687K
20260501T00Z_MSC_GDPS_AirTemp_IsbL-0010_LatLon0.15_PT063H.grib2 2026-05-01 04:15 696K
20260501T00Z_MSC_GDPS_AirTemp_IsbL-0020_LatLon0.15_PT063H.grib2 2026-05-01 04:15 788K
20260501T00Z_MSC_GDPS_AirTemp_IsbL-0030_LatLon0.15_PT063H.grib2 2026-05-01 04:15 837K
20260501T00Z_MSC_GDPS_AirTemp_IsbL-0050_LatLon0.15_PT063H.grib2 2026-05-01 04:15 814K
20260501T00Z_MSC_GDPS_AirTemp_IsbL-0100_LatLon0.15_PT063H.grib2 2026-05-01 04:15 969K
20260501T00Z_MSC_GDPS_AirTemp_IsbL-0150_LatLon0.15_PT063H.grib2 2026-05-01 04:15 1.0M
20260501T00Z_MSC_GDPS_AirTemp_IsbL-0175_LatLon0.15_PT063H.grib2 2026-05-01 04:15 960K
20260501T00Z_MSC_GDPS_AirTemp_IsbL-0200_LatLon0.15_PT063H.grib2 2026-05-01 04:15 1.0M
20260501T00Z_MSC_GDPS_AirTemp_IsbL-0225_LatLon0.15_PT063H.grib2 2026-05-01 04:15 1.0M
20260501T00Z_MSC_GDPS_AirTemp_IsbL-0250_LatLon0.15_PT063H.grib2 2026-05-01 04:15 1.0M
20260501T00Z_MSC_GDPS_AirTemp_IsbL-0275_LatLon0.15_PT063H.grib2 2026-05-01 04:15 1.0M
20260501T00Z_MSC_GDPS_AirTemp_IsbL-0300_LatLon0.15_PT063H.grib2 2026-05-01 04:15 1.0M
20260501T00Z_MSC_GDPS_AirTemp_IsbL-0350_LatLon0.15_PT063H.grib2 2026-05-01 04:15 930K
20260501T00Z_MSC_GDPS_AirTemp_IsbL-0400_LatLon0.15_PT063H.grib2 2026-05-01 04:15 940K
20260501T00Z_MSC_GDPS_AirTemp_IsbL-0450_LatLon0.15_PT063H.grib2 2026-05-01 04:15 965K
20260501T00Z_MSC_GDPS_AirTemp_IsbL-0500_LatLon0.15_PT063H.grib2 2026-05-01 04:15 1.0M
20260501T00Z_MSC_GDPS_AirTemp_IsbL-0550_LatLon0.15_PT063H.grib2 2026-05-01 04:15 1.0M
20260501T00Z_MSC_GDPS_AirTemp_IsbL-0600_LatLon0.15_PT063H.grib2 2026-05-01 04:15 899K
20260501T00Z_MSC_GDPS_AirTemp_IsbL-0650_LatLon0.15_PT063H.grib2 2026-05-01 04:15 922K
20260501T00Z_MSC_GDPS_AirTemp_IsbL-0700_LatLon0.15_PT063H.grib2 2026-05-01 04:15 956K
20260501T00Z_MSC_GDPS_AirTemp_IsbL-0750_LatLon0.15_PT063H.grib2 2026-05-01 04:15 1.0M
20260501T00Z_MSC_GDPS_AirTemp_IsbL-0800_LatLon0.15_PT063H.grib2 2026-05-01 04:15 1.1M
20260501T00Z_MSC_GDPS_AirTemp_IsbL-0850_LatLon0.15_PT063H.grib2 2026-05-01 04:15 1.1M
20260501T00Z_MSC_GDPS_AirTemp_IsbL-0875_LatLon0.15_PT063H.grib2 2026-05-01 04:15 1.2M
20260501T00Z_MSC_GDPS_AirTemp_IsbL-0900_LatLon0.15_PT063H.grib2 2026-05-01 04:15 1.1M
20260501T00Z_MSC_GDPS_AirTemp_IsbL-0925_LatLon0.15_PT063H.grib2 2026-05-01 04:15 1.1M
20260501T00Z_MSC_GDPS_AirTemp_IsbL-0950_LatLon0.15_PT063H.grib2 2026-05-01 04:15 1.1M
20260501T00Z_MSC_GDPS_AirTemp_IsbL-0970_LatLon0.15_PT063H.grib2 2026-05-01 04:15 1.1M
20260501T00Z_MSC_GDPS_AirTemp_IsbL-0985_LatLon0.15_PT063H.grib2 2026-05-01 04:15 1.1M
20260501T00Z_MSC_GDPS_AirTemp_IsbL-1000_LatLon0.15_PT063H.grib2 2026-05-01 04:15 1.1M
20260501T00Z_MSC_GDPS_AirTemp_IsbL-1015_LatLon0.15_PT063H.grib2 2026-05-01 04:15 1.1M
20260501T00Z_MSC_GDPS_Albedo_Sfc_LatLon0.15_PT063H.grib2 2026-05-01 04:15 242K
20260501T00Z_MSC_GDPS_CAPE_Sfc_LatLon0.15_PT063H.grib2 2026-05-01 04:15 3.8M
20260501T00Z_MSC_GDPS_CIN_Sfc_LatLon0.15_PT063H.grib2 2026-05-01 04:15 2.9M
20260501T00Z_MSC_GDPS_CloudWater_EAtm_LatLon0.15_PT063H.grib2 2026-05-01 04:15 534K
20260501T00Z_MSC_GDPS_ConvectivePrecip-Accum_Sfc_LatLon0.15_PT063H.grib2 2026-05-01 04:15 2.9M
20260501T00Z_MSC_GDPS_DewPointDepression_AGL-2m_LatLon0.15_PT063H.grib2 2026-05-01 04:15 764K
20260501T00Z_MSC_GDPS_DewPointDepression_IsbL-0010_LatLon0.15_PT063H.grib2 2026-05-01 04:15 66K
20260501T00Z_MSC_GDPS_DewPointDepression_IsbL-0020_LatLon0.15_PT063H.grib2 2026-05-01 04:15 67K
20260501T00Z_MSC_GDPS_DewPointDepression_IsbL-0030_LatLon0.15_PT063H.grib2 2026-05-01 04:15 82K
20260501T00Z_MSC_GDPS_DewPointDepression_IsbL-0050_LatLon0.15_PT063H.grib2 2026-05-01 04:15 377K
20260501T00Z_MSC_GDPS_DewPointDepression_IsbL-0100_LatLon0.15_PT063H.grib2 2026-05-01 04:15 408K
20260501T00Z_MSC_GDPS_DewPointDepression_IsbL-0150_LatLon0.15_PT063H.grib2 2026-05-01 04:15 468K
20260501T00Z_MSC_GDPS_DewPointDepression_IsbL-0175_LatLon0.15_PT063H.grib2 2026-05-01 04:15 585K
20260501T00Z_MSC_GDPS_DewPointDepression_IsbL-0200_LatLon0.15_PT063H.grib2 2026-05-01 04:15 689K
20260501T00Z_MSC_GDPS_DewPointDepression_IsbL-0225_LatLon0.15_PT063H.grib2 2026-05-01 04:15 782K
20260501T00Z_MSC_GDPS_DewPointDepression_IsbL-0250_LatLon0.15_PT063H.grib2 2026-05-01 04:15 861K
20260501T00Z_MSC_GDPS_DewPointDepression_IsbL-0275_LatLon0.15_PT063H.grib2 2026-05-01 04:15 879K
20260501T00Z_MSC_GDPS_DewPointDepression_IsbL-0300_LatLon0.15_PT063H.grib2 2026-05-01 04:15 920K
20260501T00Z_MSC_GDPS_DewPointDepression_IsbL-0350_LatLon0.15_PT063H.grib2 2026-05-01 04:15 951K
20260501T00Z_MSC_GDPS_DewPointDepression_IsbL-0400_LatLon0.15_PT063H.grib2 2026-05-01 04:15 1.0M
20260501T00Z_MSC_GDPS_DewPointDepression_IsbL-0450_LatLon0.15_PT063H.grib2 2026-05-01 04:15 1.0M
20260501T00Z_MSC_GDPS_DewPointDepression_IsbL-0500_LatLon0.15_PT063H.grib2 2026-05-01 04:15 1.0M
20260501T00Z_MSC_GDPS_DewPointDepression_IsbL-0550_LatLon0.15_PT063H.grib2 2026-05-01 04:15 1.0M
20260501T00Z_MSC_GDPS_DewPointDepression_IsbL-0600_LatLon0.15_PT063H.grib2 2026-05-01 04:15 1.0M
20260501T00Z_MSC_GDPS_DewPointDepression_IsbL-0650_LatLon0.15_PT063H.grib2 2026-05-01 04:15 1.1M
20260501T00Z_MSC_GDPS_DewPointDepression_IsbL-0700_LatLon0.15_PT063H.grib2 2026-05-01 04:15 1.1M
20260501T00Z_MSC_GDPS_DewPointDepression_IsbL-0750_LatLon0.15_PT063H.grib2 2026-05-01 04:15 1.1M
20260501T00Z_MSC_GDPS_DewPointDepression_IsbL-0800_LatLon0.15_PT063H.grib2 2026-05-01 04:15 1.2M
20260501T00Z_MSC_GDPS_DewPointDepression_IsbL-0850_LatLon0.15_PT063H.grib2 2026-05-01 04:15 1.1M
20260501T00Z_MSC_GDPS_DewPointDepression_IsbL-0875_LatLon0.15_PT063H.grib2 2026-05-01 04:15 1.1M
20260501T00Z_MSC_GDPS_DewPointDepression_IsbL-0900_LatLon0.15_PT063H.grib2 2026-05-01 04:15 1.1M
20260501T00Z_MSC_GDPS_DewPointDepression_IsbL-0925_LatLon0.15_PT063H.grib2 2026-05-01 04:15 1.0M
20260501T00Z_MSC_GDPS_DewPointDepression_IsbL-0950_LatLon0.15_PT063H.grib2 2026-05-01 04:15 1.0M
20260501T00Z_MSC_GDPS_DewPointDepression_IsbL-0970_LatLon0.15_PT063H.grib2 2026-05-01 04:15 1.0M
20260501T00Z_MSC_GDPS_DewPointDepression_IsbL-0985_LatLon0.15_PT063H.grib2 2026-05-01 04:15 1.0M
20260501T00Z_MSC_GDPS_DewPointDepression_IsbL-1000_LatLon0.15_PT063H.grib2 2026-05-01 04:15 1.0M
20260501T00Z_MSC_GDPS_DewPointDepression_IsbL-1015_LatLon0.15_PT063H.grib2 2026-05-01 04:15 916K
20260501T00Z_MSC_GDPS_DewPoint_AGL-2m_LatLon0.15_PT063H.grib2 2026-05-01 04:15 613K
20260501T00Z_MSC_GDPS_DownwardLongwaveRadiationFlux-Accum_Sfc_LatLon0.15_PT063H.grib2 2026-05-01 04:15 878K
20260501T00Z_MSC_GDPS_DownwardShortwaveRadiationFlux-Accum_NTAtm_LatLon0.15_PT063H.grib2 2026-05-01 04:15 217K
20260501T00Z_MSC_GDPS_DownwardShortwaveRadiationFlux-Accum_Sfc_LatLon0.15_PT063H.grib2 2026-05-01 04:15 1.1M
20260501T00Z_MSC_GDPS_FreezingRain-Accum1h_Sfc_LatLon0.15_PT063H.grib2 2026-05-01 04:15 35K
20260501T00Z_MSC_GDPS_FreezingRain-Accum3h_Sfc_LatLon0.15_PT063H.grib2 2026-05-01 04:15 53K
20260501T00Z_MSC_GDPS_FreezingRain-Accum_Sfc_LatLon0.15_PT063H.grib2 2026-05-01 04:15 255K
20260501T00Z_MSC_GDPS_GeopotentialHeight_IsbL-0001_LatLon0.15_PT063H.grib2 2026-05-01 04:15 412K
20260501T00Z_MSC_GDPS_GeopotentialHeight_IsbL-0005_LatLon0.15_PT063H.grib2 2026-05-01 04:15 488K
20260501T00Z_MSC_GDPS_GeopotentialHeight_IsbL-0010_LatLon0.15_PT063H.grib2 2026-05-01 04:15 481K
20260501T00Z_MSC_GDPS_GeopotentialHeight_IsbL-0020_LatLon0.15_PT063H.grib2 2026-05-01 04:15 413K
20260501T00Z_MSC_GDPS_GeopotentialHeight_IsbL-0030_LatLon0.15_PT063H.grib2 2026-05-01 04:15 569K
20260501T00Z_MSC_GDPS_GeopotentialHeight_IsbL-0050_LatLon0.15_PT063H.grib2 2026-05-01 04:15 569K
20260501T00Z_MSC_GDPS_GeopotentialHeight_IsbL-0100_LatLon0.15_PT063H.grib2 2026-05-01 04:15 609K
20260501T00Z_MSC_GDPS_GeopotentialHeight_IsbL-0150_LatLon0.15_PT063H.grib2 2026-05-01 04:15 625K
20260501T00Z_MSC_GDPS_GeopotentialHeight_IsbL-0175_LatLon0.15_PT063H.grib2 2026-05-01 04:15 627K
20260501T00Z_MSC_GDPS_GeopotentialHeight_IsbL-0200_LatLon0.15_PT063H.grib2 2026-05-01 04:15 633K
20260501T00Z_MSC_GDPS_GeopotentialHeight_IsbL-0225_LatLon0.15_PT063H.grib2 2026-05-01 04:15 630K
20260501T00Z_MSC_GDPS_GeopotentialHeight_IsbL-0250_LatLon0.15_PT063H.grib2 2026-05-01 04:15 636K
20260501T00Z_MSC_GDPS_GeopotentialHeight_IsbL-0275_LatLon0.15_PT063H.grib2 2026-05-01 04:15 639K
20260501T00Z_MSC_GDPS_GeopotentialHeight_IsbL-0300_LatLon0.15_PT063H.grib2 2026-05-01 04:15 631K
20260501T00Z_MSC_GDPS_GeopotentialHeight_IsbL-0350_LatLon0.15_PT063H.grib2 2026-05-01 04:15 628K
20260501T00Z_MSC_GDPS_GeopotentialHeight_IsbL-0400_LatLon0.15_PT063H.grib2 2026-05-01 04:15 618K
20260501T00Z_MSC_GDPS_GeopotentialHeight_IsbL-0450_LatLon0.15_PT063H.grib2 2026-05-01 04:15 611K
20260501T00Z_MSC_GDPS_GeopotentialHeight_IsbL-0500_LatLon0.15_PT063H.grib2 2026-05-01 04:15 601K
20260501T00Z_MSC_GDPS_GeopotentialHeight_IsbL-0550_LatLon0.15_PT063H.grib2 2026-05-01 04:15 529K
20260501T00Z_MSC_GDPS_GeopotentialHeight_IsbL-0600_LatLon0.15_PT063H.grib2 2026-05-01 04:15 525K
20260501T00Z_MSC_GDPS_GeopotentialHeight_IsbL-0650_LatLon0.15_PT063H.grib2 2026-05-01 04:15 692K
20260501T00Z_MSC_GDPS_GeopotentialHeight_IsbL-0700_LatLon0.15_PT063H.grib2 2026-05-01 04:15 687K
20260501T00Z_MSC_GDPS_GeopotentialHeight_IsbL-0750_LatLon0.15_PT063H.grib2 2026-05-01 04:15 696K
20260501T00Z_MSC_GDPS_GeopotentialHeight_IsbL-0800_LatLon0.15_PT063H.grib2 2026-05-01 04:15 706K
20260501T00Z_MSC_GDPS_GeopotentialHeight_IsbL-0850_LatLon0.15_PT063H.grib2 2026-05-01 04:15 715K
20260501T00Z_MSC_GDPS_GeopotentialHeight_IsbL-0875_LatLon0.15_PT063H.grib2 2026-05-01 04:15 715K
20260501T00Z_MSC_GDPS_GeopotentialHeight_IsbL-0900_LatLon0.15_PT063H.grib2 2026-05-01 04:15 725K
20260501T00Z_MSC_GDPS_GeopotentialHeight_IsbL-0925_LatLon0.15_PT063H.grib2 2026-05-01 04:15 733K
20260501T00Z_MSC_GDPS_GeopotentialHeight_IsbL-0950_LatLon0.15_PT063H.grib2 2026-05-01 04:15 739K
20260501T00Z_MSC_GDPS_GeopotentialHeight_IsbL-0970_LatLon0.15_PT063H.grib2 2026-05-01 04:15 752K
20260501T00Z_MSC_GDPS_GeopotentialHeight_IsbL-0985_LatLon0.15_PT063H.grib2 2026-05-01 04:15 768K
20260501T00Z_MSC_GDPS_GeopotentialHeight_IsbL-1000_LatLon0.15_PT063H.grib2 2026-05-01 04:15 789K
20260501T00Z_MSC_GDPS_GeopotentialHeight_IsbL-1015_LatLon0.15_PT063H.grib2 2026-05-01 04:15 812K
20260501T00Z_MSC_GDPS_Humidex_Sfc_LatLon0.15_PT063H.grib2 2026-05-01 04:15 5.3M
20260501T00Z_MSC_GDPS_IcePellets-Accum1h_Sfc_LatLon0.15_PT063H.grib2 2026-05-01 04:15 2.7K
20260501T00Z_MSC_GDPS_IcePellets-Accum3h_Sfc_LatLon0.15_PT063H.grib2 2026-05-01 04:15 4.1K
20260501T00Z_MSC_GDPS_IcePellets-Accum_Sfc_LatLon0.15_PT063H.grib2 2026-05-01 04:15 60K
20260501T00Z_MSC_GDPS_KIndex_Sfc_LatLon0.15_PT063H.grib2 2026-05-01 04:15 6.5M
20260501T00Z_MSC_GDPS_LatentHeatNetFlux_Sfc_LatLon0.15_PT063H.grib2 2026-05-01 04:15 714K
20260501T00Z_MSC_GDPS_LiftedIndex-MU-VT_IsbL-0500_LatLon0.15_PT063H.grib2 2026-05-01 04:15 5.4M
20260501T00Z_MSC_GDPS_NetLongwaveRadiationFlux-Accum_Sfc_LatLon0.15_PT063H.grib2 2026-05-01 04:15 1.2M
20260501T00Z_MSC_GDPS_NetShortwaveRadiationFlux-Accum_Sfc_LatLon0.15_PT063H.grib2 2026-05-01 04:15 1.1M
20260501T00Z_MSC_GDPS_O3MixingRatio_Sfc_LatLon0.15_PT063H.grib2 2026-05-01 04:50 1.9M
20260501T00Z_MSC_GDPS_O3_EAtm_LatLon0.15_PT063H.grib2 2026-05-01 04:50 2.5M
20260501T00Z_MSC_GDPS_PlanetaryBoundaryLayerHeight_Sfc_LatLon0.15_PT063H.grib2 2026-05-01 04:15 2.5M
20260501T00Z_MSC_GDPS_Precip-Accum1h_Sfc_LatLon0.15_PT063H.grib2 2026-05-01 04:15 3.2M
20260501T00Z_MSC_GDPS_Precip-Accum3h_Sfc_LatLon0.15_PT063H.grib2 2026-05-01 04:15 3.5M
20260501T00Z_MSC_GDPS_Precip-Accum_Sfc_LatLon0.15_PT063H.grib2 2026-05-01 04:15 5.1M
20260501T00Z_MSC_GDPS_PrecipRate_Sfc_LatLon0.15_PT063H.grib2 2026-05-01 04:15 3.0M
20260501T00Z_MSC_GDPS_PrecipType-Instant_Sfc_LatLon0.15_PT063H.grib2 2026-05-01 04:15 1.6M
20260501T00Z_MSC_GDPS_Pressure_MSL_LatLon0.15_PT063H.grib2 2026-05-01 04:15 839K
20260501T00Z_MSC_GDPS_Pressure_PVU-1.5_LatLon0.15_PT063H.grib2 2026-05-01 04:15 5.8M
20260501T00Z_MSC_GDPS_Pressure_PVU-1_LatLon0.15_PT063H.grib2 2026-05-01 04:15 6.0M
20260501T00Z_MSC_GDPS_Pressure_PVU-2_LatLon0.15_PT063H.grib2 2026-05-01 04:15 5.6M
20260501T00Z_MSC_GDPS_Pressure_Sfc_LatLon0.15_PT063H.grib2 2026-05-01 04:15 1.1M
20260501T00Z_MSC_GDPS_RadiativeTemp_Sfc_LatLon0.15_PT063H.grib2 2026-05-01 04:15 494K
20260501T00Z_MSC_GDPS_Rain-Accum1h_Sfc_LatLon0.15_PT063H.grib2 2026-05-01 04:15 1.7M
20260501T00Z_MSC_GDPS_Rain-Accum3h_Sfc_LatLon0.15_PT063H.grib2 2026-05-01 04:15 1.9M
20260501T00Z_MSC_GDPS_Rain-Accum_Sfc_LatLon0.15_PT063H.grib2 2026-05-01 04:15 3.8M
20260501T00Z_MSC_GDPS_RelativeHumidity_AGL-2m_LatLon0.15_PT063H.grib2 2026-05-01 04:15 1.1M
20260501T00Z_MSC_GDPS_RelativeHumidity_IsbL-0010_LatLon0.15_PT063H.grib2 2026-05-01 04:15 133K
20260501T00Z_MSC_GDPS_RelativeHumidity_IsbL-0020_LatLon0.15_PT063H.grib2 2026-05-01 04:15 168K
20260501T00Z_MSC_GDPS_RelativeHumidity_IsbL-0030_LatLon0.15_PT063H.grib2 2026-05-01 04:15 270K
20260501T00Z_MSC_GDPS_RelativeHumidity_IsbL-0050_LatLon0.15_PT063H.grib2 2026-05-01 04:15 423K
20260501T00Z_MSC_GDPS_RelativeHumidity_IsbL-0100_LatLon0.15_PT063H.grib2 2026-05-01 04:15 511K
20260501T00Z_MSC_GDPS_RelativeHumidity_IsbL-0150_LatLon0.15_PT063H.grib2 2026-05-01 04:15 661K
20260501T00Z_MSC_GDPS_RelativeHumidity_IsbL-0175_LatLon0.15_PT063H.grib2 2026-05-01 04:15 789K
20260501T00Z_MSC_GDPS_RelativeHumidity_IsbL-0200_LatLon0.15_PT063H.grib2 2026-05-01 04:15 710K
20260501T00Z_MSC_GDPS_RelativeHumidity_IsbL-0225_LatLon0.15_PT063H.grib2 2026-05-01 04:15 791K
20260501T00Z_MSC_GDPS_RelativeHumidity_IsbL-0250_LatLon0.15_PT063H.grib2 2026-05-01 04:15 866K
20260501T00Z_MSC_GDPS_RelativeHumidity_IsbL-0275_LatLon0.15_PT063H.grib2 2026-05-01 04:15 886K
20260501T00Z_MSC_GDPS_RelativeHumidity_IsbL-0300_LatLon0.15_PT063H.grib2 2026-05-01 04:15 925K
20260501T00Z_MSC_GDPS_RelativeHumidity_IsbL-0350_LatLon0.15_PT063H.grib2 2026-05-01 04:15 947K
20260501T00Z_MSC_GDPS_RelativeHumidity_IsbL-0400_LatLon0.15_PT063H.grib2 2026-05-01 04:15 972K
20260501T00Z_MSC_GDPS_RelativeHumidity_IsbL-0450_LatLon0.15_PT063H.grib2 2026-05-01 04:15 1.0M
20260501T00Z_MSC_GDPS_RelativeHumidity_IsbL-0500_LatLon0.15_PT063H.grib2 2026-05-01 04:15 1.0M
20260501T00Z_MSC_GDPS_RelativeHumidity_IsbL-0550_LatLon0.15_PT063H.grib2 2026-05-01 04:15 1.1M
20260501T00Z_MSC_GDPS_RelativeHumidity_IsbL-0600_LatLon0.15_PT063H.grib2 2026-05-01 04:15 1.0M
20260501T00Z_MSC_GDPS_RelativeHumidity_IsbL-0650_LatLon0.15_PT063H.grib2 2026-05-01 04:15 1.1M
20260501T00Z_MSC_GDPS_RelativeHumidity_IsbL-0700_LatLon0.15_PT063H.grib2 2026-05-01 04:15 1.1M
20260501T00Z_MSC_GDPS_RelativeHumidity_IsbL-0750_LatLon0.15_PT063H.grib2 2026-05-01 04:15 1.2M
20260501T00Z_MSC_GDPS_RelativeHumidity_IsbL-0800_LatLon0.15_PT063H.grib2 2026-05-01 04:15 1.3M
20260501T00Z_MSC_GDPS_RelativeHumidity_IsbL-0850_LatLon0.15_PT063H.grib2 2026-05-01 04:15 1.3M
20260501T00Z_MSC_GDPS_RelativeHumidity_IsbL-0875_LatLon0.15_PT063H.grib2 2026-05-01 04:15 1.3M
20260501T00Z_MSC_GDPS_RelativeHumidity_IsbL-0900_LatLon0.15_PT063H.grib2 2026-05-01 04:15 1.2M
20260501T00Z_MSC_GDPS_RelativeHumidity_IsbL-0925_LatLon0.15_PT063H.grib2 2026-05-01 04:15 1.2M
20260501T00Z_MSC_GDPS_RelativeHumidity_IsbL-0950_LatLon0.15_PT063H.grib2 2026-05-01 04:15 1.2M
20260501T00Z_MSC_GDPS_RelativeHumidity_IsbL-0970_LatLon0.15_PT063H.grib2 2026-05-01 04:15 1.2M
20260501T00Z_MSC_GDPS_RelativeHumidity_IsbL-0985_LatLon0.15_PT063H.grib2 2026-05-01 04:15 1.1M
20260501T00Z_MSC_GDPS_RelativeHumidity_IsbL-1000_LatLon0.15_PT063H.grib2 2026-05-01 04:15 1.1M
20260501T00Z_MSC_GDPS_RelativeHumidity_IsbL-1015_LatLon0.15_PT063H.grib2 2026-05-01 04:15 1.0M
20260501T00Z_MSC_GDPS_RelativeVorticity_IsbL-0200_LatLon0.15_PT063H.grib2 2026-05-01 04:15 1.5M
20260501T00Z_MSC_GDPS_RelativeVorticity_IsbL-0250_LatLon0.15_PT063H.grib2 2026-05-01 04:15 1.3M
20260501T00Z_MSC_GDPS_RelativeVorticity_IsbL-0500_LatLon0.15_PT063H.grib2 2026-05-01 04:15 1.4M
20260501T00Z_MSC_GDPS_RelativeVorticity_IsbL-0700_LatLon0.15_PT063H.grib2 2026-05-01 04:15 1.3M
20260501T00Z_MSC_GDPS_RelativeVorticity_IsbL-0850_LatLon0.15_PT063H.grib2 2026-05-01 04:15 1.6M
20260501T00Z_MSC_GDPS_Runoff-Accum_Sfc_LatLon0.15_PT063H.grib2 2026-05-01 04:15 143K
20260501T00Z_MSC_GDPS_SensibleHeatNetFlux_Sfc_LatLon0.15_PT063H.grib2 2026-05-01 04:15 647K
20260501T00Z_MSC_GDPS_ShowalterIndex_IsbL-0500_LatLon0.15_PT063H.grib2 2026-05-01 04:15 6.2M
20260501T00Z_MSC_GDPS_Snow-Accum1h_Sfc_LatLon0.15_PT063H.grib2 2026-05-01 04:15 1.1M
20260501T00Z_MSC_GDPS_Snow-Accum3h_Sfc_LatLon0.15_PT063H.grib2 2026-05-01 04:15 1.1M
20260501T00Z_MSC_GDPS_Snow-Accum_Sfc_LatLon0.15_PT063H.grib2 2026-05-01 04:15 1.8M
20260501T00Z_MSC_GDPS_SnowDensity_Sfc_LatLon0.15_PT063H.grib2 2026-05-01 04:15 263K
20260501T00Z_MSC_GDPS_SnowDepth_Sfc_LatLon0.15_PT063H.grib2 2026-05-01 04:15 1.7M
20260501T00Z_MSC_GDPS_SoilTemp_DBS-0to10cm_LatLon0.15_PT063H.grib2 2026-05-01 04:15 511K
20260501T00Z_MSC_GDPS_SoilTemp_Sfc_LatLon0.15_PT063H.grib2 2026-05-01 04:15 583K
20260501T00Z_MSC_GDPS_SoilVolumetricIceContent_Sfc_LatLon0.15_PT063H.grib2 2026-05-01 04:15 198K
20260501T00Z_MSC_GDPS_SoilVolumetricWaterContent_DBS-0to10cm_LatLon0.15_PT063H.grib2 2026-05-01 04:15 588K
20260501T00Z_MSC_GDPS_SoilVolumetricWaterContent_DBS-0to1cm_LatLon0.15_PT063H.grib2 2026-05-01 04:15 649K
20260501T00Z_MSC_GDPS_SpecificHumidity_AGL-120m_LatLon0.15_PT063H.grib2 2026-05-01 04:15 1.1M
20260501T00Z_MSC_GDPS_SpecificHumidity_AGL-2m_LatLon0.15_PT063H.grib2 2026-05-01 04:15 1.2M
20260501T00Z_MSC_GDPS_SpecificHumidity_AGL-40m_LatLon0.15_PT063H.grib2 2026-05-01 04:15 1.1M
20260501T00Z_MSC_GDPS_SpecificHumidity_AGL-80m_LatLon0.15_PT063H.grib2 2026-05-01 04:15 1.1M
20260501T00Z_MSC_GDPS_SpecificHumidity_IsbL-0001_LatLon0.15_PT063H.grib2 2026-05-01 04:15 1.3M
20260501T00Z_MSC_GDPS_SpecificHumidity_IsbL-0005_LatLon0.15_PT063H.grib2 2026-05-01 04:15 1.2M
20260501T00Z_MSC_GDPS_SpecificHumidity_IsbL-0010_LatLon0.15_PT063H.grib2 2026-05-01 04:15 1.3M
20260501T00Z_MSC_GDPS_SpecificHumidity_IsbL-0020_LatLon0.15_PT063H.grib2 2026-05-01 04:15 1.4M
20260501T00Z_MSC_GDPS_SpecificHumidity_IsbL-0030_LatLon0.15_PT063H.grib2 2026-05-01 04:15 1.3M
20260501T00Z_MSC_GDPS_SpecificHumidity_IsbL-0050_LatLon0.15_PT063H.grib2 2026-05-01 04:15 1.7M
20260501T00Z_MSC_GDPS_SpecificHumidity_IsbL-0100_LatLon0.15_PT063H.grib2 2026-05-01 04:15 1.3M
20260501T00Z_MSC_GDPS_SpecificHumidity_IsbL-0150_LatLon0.15_PT063H.grib2 2026-05-01 04:15 1.3M
20260501T00Z_MSC_GDPS_SpecificHumidity_IsbL-0175_LatLon0.15_PT063H.grib2 2026-05-01 04:15 1.3M
20260501T00Z_MSC_GDPS_SpecificHumidity_IsbL-0200_LatLon0.15_PT063H.grib2 2026-05-01 04:15 1.3M
20260501T00Z_MSC_GDPS_SpecificHumidity_IsbL-0225_LatLon0.15_PT063H.grib2 2026-05-01 04:15 1.3M
20260501T00Z_MSC_GDPS_SpecificHumidity_IsbL-0250_LatLon0.15_PT063H.grib2 2026-05-01 04:15 1.4M
20260501T00Z_MSC_GDPS_SpecificHumidity_IsbL-0275_LatLon0.15_PT063H.grib2 2026-05-01 04:15 1.3M
20260501T00Z_MSC_GDPS_SpecificHumidity_IsbL-0300_LatLon0.15_PT063H.grib2 2026-05-01 04:15 1.2M
20260501T00Z_MSC_GDPS_SpecificHumidity_IsbL-0350_LatLon0.15_PT063H.grib2 2026-05-01 04:15 1.5M
20260501T00Z_MSC_GDPS_SpecificHumidity_IsbL-0400_LatLon0.15_PT063H.grib2 2026-05-01 04:15 1.5M
20260501T00Z_MSC_GDPS_SpecificHumidity_IsbL-0450_LatLon0.15_PT063H.grib2 2026-05-01 04:15 1.6M
20260501T00Z_MSC_GDPS_SpecificHumidity_IsbL-0500_LatLon0.15_PT063H.grib2 2026-05-01 04:15 1.4M
20260501T00Z_MSC_GDPS_SpecificHumidity_IsbL-0550_LatLon0.15_PT063H.grib2 2026-05-01 04:15 1.6M
20260501T00Z_MSC_GDPS_SpecificHumidity_IsbL-0600_LatLon0.15_PT063H.grib2 2026-05-01 04:15 1.7M
20260501T00Z_MSC_GDPS_SpecificHumidity_IsbL-0650_LatLon0.15_PT063H.grib2 2026-05-01 04:15 1.5M
20260501T00Z_MSC_GDPS_SpecificHumidity_IsbL-0700_LatLon0.15_PT063H.grib2 2026-05-01 04:15 1.6M
20260501T00Z_MSC_GDPS_SpecificHumidity_IsbL-0750_LatLon0.15_PT063H.grib2 2026-05-01 04:15 1.7M
20260501T00Z_MSC_GDPS_SpecificHumidity_IsbL-0800_LatLon0.15_PT063H.grib2 2026-05-01 04:15 1.8M
20260501T00Z_MSC_GDPS_SpecificHumidity_IsbL-0850_LatLon0.15_PT063H.grib2 2026-05-01 04:15 1.9M
20260501T00Z_MSC_GDPS_SpecificHumidity_IsbL-0875_LatLon0.15_PT063H.grib2 2026-05-01 04:15 1.9M
20260501T00Z_MSC_GDPS_SpecificHumidity_IsbL-0900_LatLon0.15_PT063H.grib2 2026-05-01 04:15 1.6M
20260501T00Z_MSC_GDPS_SpecificHumidity_IsbL-0925_LatLon0.15_PT063H.grib2 2026-05-01 04:15 1.6M
20260501T00Z_MSC_GDPS_SpecificHumidity_IsbL-0950_LatLon0.15_PT063H.grib2 2026-05-01 04:15 1.6M
20260501T00Z_MSC_GDPS_SpecificHumidity_IsbL-0970_LatLon0.15_PT063H.grib2 2026-05-01 04:15 1.5M
20260501T00Z_MSC_GDPS_SpecificHumidity_IsbL-0985_LatLon0.15_PT063H.grib2 2026-05-01 04:15 1.5M
20260501T00Z_MSC_GDPS_SpecificHumidity_IsbL-1000_LatLon0.15_PT063H.grib2 2026-05-01 04:15 1.5M
20260501T00Z_MSC_GDPS_SpecificHumidity_IsbL-1015_LatLon0.15_PT063H.grib2 2026-05-01 04:15 1.5M
20260501T00Z_MSC_GDPS_SpecificHumidity_Sfc_LatLon0.15_PT063H.grib2 2026-05-01 04:15 673K
20260501T00Z_MSC_GDPS_Thickness_IsbL-0850to0700_LatLon0.15_PT063H.grib2 2026-05-01 04:15 469K
20260501T00Z_MSC_GDPS_Thickness_IsbL-1000to0500_LatLon0.15_PT063H.grib2 2026-05-01 04:15 371K
20260501T00Z_MSC_GDPS_Thickness_IsbL-1000to0850_LatLon0.15_PT063H.grib2 2026-05-01 04:15 492K
20260501T00Z_MSC_GDPS_TotalCloudCover_Sfc_LatLon0.15_PT063H.grib2 2026-05-01 04:15 821K
20260501T00Z_MSC_GDPS_TotalTotalsIndex_Sfc_LatLon0.15_PT063H.grib2 2026-05-01 04:15 6.2M
20260501T00Z_MSC_GDPS_UVIndex-ClearSky_Sfc_LatLon0.15_PT063H.grib2 2026-05-01 04:50 1.0M
20260501T00Z_MSC_GDPS_UVIndex_Sfc_LatLon0.15_PT063H.grib2 2026-05-01 04:50 1.5M
20260501T00Z_MSC_GDPS_UpwardLongwaveRadiationFlux_NTAtm_LatLon0.15_PT063H.grib2 2026-05-01 04:15 841K
20260501T00Z_MSC_GDPS_VerticalVelocity_IsbL-0200_LatLon0.15_PT063H.grib2 2026-05-01 04:15 1.2M
20260501T00Z_MSC_GDPS_VerticalVelocity_IsbL-0250_LatLon0.15_PT063H.grib2 2026-05-01 04:15 1.0M
20260501T00Z_MSC_GDPS_VerticalVelocity_IsbL-0500_LatLon0.15_PT063H.grib2 2026-05-01 04:15 1.3M
20260501T00Z_MSC_GDPS_VerticalVelocity_IsbL-0600_LatLon0.15_PT063H.grib2 2026-05-01 04:15 1.4M
20260501T00Z_MSC_GDPS_VerticalVelocity_IsbL-0700_LatLon0.15_PT063H.grib2 2026-05-01 04:15 1.4M
20260501T00Z_MSC_GDPS_VerticalVelocity_IsbL-0850_LatLon0.15_PT063H.grib2 2026-05-01 04:15 1.6M
20260501T00Z_MSC_GDPS_WindChill_Sfc_LatLon0.15_PT063H.grib2 2026-05-01 04:15 5.3M
20260501T00Z_MSC_GDPS_WindDir_AGL-10m_LatLon0.15_PT063H.grib2 2026-05-01 04:15 1.3M
20260501T00Z_MSC_GDPS_WindDir_AGL-120m_LatLon0.15_PT063H.grib2 2026-05-01 04:15 1.3M
20260501T00Z_MSC_GDPS_WindDir_AGL-40m_LatLon0.15_PT063H.grib2 2026-05-01 04:15 1.4M
20260501T00Z_MSC_GDPS_WindDir_AGL-80m_LatLon0.15_PT063H.grib2 2026-05-01 04:15 1.4M
20260501T00Z_MSC_GDPS_WindDir_IsbL-0001_LatLon0.15_PT063H.grib2 2026-05-01 04:15 671K
20260501T00Z_MSC_GDPS_WindDir_IsbL-0005_LatLon0.15_PT063H.grib2 2026-05-01 04:15 819K
20260501T00Z_MSC_GDPS_WindDir_IsbL-0010_LatLon0.15_PT063H.grib2 2026-05-01 04:15 834K
20260501T00Z_MSC_GDPS_WindDir_IsbL-0020_LatLon0.15_PT063H.grib2 2026-05-01 04:15 961K
20260501T00Z_MSC_GDPS_WindDir_IsbL-0030_LatLon0.15_PT063H.grib2 2026-05-01 04:15 945K
20260501T00Z_MSC_GDPS_WindDir_IsbL-0050_LatLon0.15_PT063H.grib2 2026-05-01 04:15 962K
20260501T00Z_MSC_GDPS_WindDir_IsbL-0100_LatLon0.15_PT063H.grib2 2026-05-01 04:15 1.0M
20260501T00Z_MSC_GDPS_WindDir_IsbL-0150_LatLon0.15_PT063H.grib2 2026-05-01 04:15 1.0M
20260501T00Z_MSC_GDPS_WindDir_IsbL-0175_LatLon0.15_PT063H.grib2 2026-05-01 04:15 1.0M
20260501T00Z_MSC_GDPS_WindDir_IsbL-0200_LatLon0.15_PT063H.grib2 2026-05-01 04:15 1.1M
20260501T00Z_MSC_GDPS_WindDir_IsbL-0225_LatLon0.15_PT063H.grib2 2026-05-01 04:15 1.1M
20260501T00Z_MSC_GDPS_WindDir_IsbL-0250_LatLon0.15_PT063H.grib2 2026-05-01 04:15 1.1M
20260501T00Z_MSC_GDPS_WindDir_IsbL-0275_LatLon0.15_PT063H.grib2 2026-05-01 04:15 1.2M
20260501T00Z_MSC_GDPS_WindDir_IsbL-0300_LatLon0.15_PT063H.grib2 2026-05-01 04:15 1.2M
20260501T00Z_MSC_GDPS_WindDir_IsbL-0350_LatLon0.15_PT063H.grib2 2026-05-01 04:15 1.2M
20260501T00Z_MSC_GDPS_WindDir_IsbL-0400_LatLon0.15_PT063H.grib2 2026-05-01 04:15 1.3M
20260501T00Z_MSC_GDPS_WindDir_IsbL-0450_LatLon0.15_PT063H.grib2 2026-05-01 04:15 1.3M
20260501T00Z_MSC_GDPS_WindDir_IsbL-0500_LatLon0.15_PT063H.grib2 2026-05-01 04:15 1.3M
20260501T00Z_MSC_GDPS_WindDir_IsbL-0550_LatLon0.15_PT063H.grib2 2026-05-01 04:15 1.4M
20260501T00Z_MSC_GDPS_WindDir_IsbL-0600_LatLon0.15_PT063H.grib2 2026-05-01 04:15 1.4M
20260501T00Z_MSC_GDPS_WindDir_IsbL-0650_LatLon0.15_PT063H.grib2 2026-05-01 04:15 1.5M
20260501T00Z_MSC_GDPS_WindDir_IsbL-0700_LatLon0.15_PT063H.grib2 2026-05-01 04:15 1.6M
20260501T00Z_MSC_GDPS_WindDir_IsbL-0750_LatLon0.15_PT063H.grib2 2026-05-01 04:15 1.7M
20260501T00Z_MSC_GDPS_WindDir_IsbL-0800_LatLon0.15_PT063H.grib2 2026-05-01 04:15 1.8M
20260501T00Z_MSC_GDPS_WindDir_IsbL-0850_LatLon0.15_PT063H.grib2 2026-05-01 04:15 1.9M
20260501T00Z_MSC_GDPS_WindDir_IsbL-0875_LatLon0.15_PT063H.grib2 2026-05-01 04:15 1.9M
20260501T00Z_MSC_GDPS_WindDir_IsbL-0900_LatLon0.15_PT063H.grib2 2026-05-01 04:15 2.0M
20260501T00Z_MSC_GDPS_WindDir_IsbL-0925_LatLon0.15_PT063H.grib2 2026-05-01 04:15 2.0M
20260501T00Z_MSC_GDPS_WindDir_IsbL-0950_LatLon0.15_PT063H.grib2 2026-05-01 04:15 2.0M
20260501T00Z_MSC_GDPS_WindDir_IsbL-0970_LatLon0.15_PT063H.grib2 2026-05-01 04:15 2.0M
20260501T00Z_MSC_GDPS_WindDir_IsbL-0985_LatLon0.15_PT063H.grib2 2026-05-01 04:15 2.0M
20260501T00Z_MSC_GDPS_WindDir_IsbL-1000_LatLon0.15_PT063H.grib2 2026-05-01 04:15 2.0M
20260501T00Z_MSC_GDPS_WindDir_IsbL-1015_LatLon0.15_PT063H.grib2 2026-05-01 04:15 2.0M
20260501T00Z_MSC_GDPS_WindGust-Max_AGL-10m_LatLon0.15_PT063H.grib2 2026-05-01 04:15 2.2M
20260501T00Z_MSC_GDPS_WindGust-Min_AGL-10m_LatLon0.15_PT063H.grib2 2026-05-01 04:15 2.2M
20260501T00Z_MSC_GDPS_WindGust_AGL-10m_LatLon0.15_PT063H.grib2 2026-05-01 04:15 2.1M
20260501T00Z_MSC_GDPS_WindSpeed_AGL-10m_LatLon0.15_PT063H.grib2 2026-05-01 04:15 1.1M
20260501T00Z_MSC_GDPS_WindSpeed_AGL-120m_LatLon0.15_PT063H.grib2 2026-05-01 04:15 1.2M
20260501T00Z_MSC_GDPS_WindSpeed_AGL-40m_LatLon0.15_PT063H.grib2 2026-05-01 04:15 1.2M
20260501T00Z_MSC_GDPS_WindSpeed_AGL-80m_LatLon0.15_PT063H.grib2 2026-05-01 04:15 1.2M
20260501T00Z_MSC_GDPS_WindSpeed_IsbL-0001_LatLon0.15_PT063H.grib2 2026-05-01 04:15 641K
20260501T00Z_MSC_GDPS_WindSpeed_IsbL-0005_LatLon0.15_PT063H.grib2 2026-05-01 04:15 694K
20260501T00Z_MSC_GDPS_WindSpeed_IsbL-0010_LatLon0.15_PT063H.grib2 2026-05-01 04:15 626K
20260501T00Z_MSC_GDPS_WindSpeed_IsbL-0020_LatLon0.15_PT063H.grib2 2026-05-01 04:15 668K
20260501T00Z_MSC_GDPS_WindSpeed_IsbL-0030_LatLon0.15_PT063H.grib2 2026-05-01 04:15 867K
20260501T00Z_MSC_GDPS_WindSpeed_IsbL-0050_LatLon0.15_PT063H.grib2 2026-05-01 04:15 910K
20260501T00Z_MSC_GDPS_WindSpeed_IsbL-0100_LatLon0.15_PT063H.grib2 2026-05-01 04:15 1.1M
20260501T00Z_MSC_GDPS_WindSpeed_IsbL-0150_LatLon0.15_PT063H.grib2 2026-05-01 04:15 1.0M
20260501T00Z_MSC_GDPS_WindSpeed_IsbL-0175_LatLon0.15_PT063H.grib2 2026-05-01 04:15 1.0M
20260501T00Z_MSC_GDPS_WindSpeed_IsbL-0200_LatLon0.15_PT063H.grib2 2026-05-01 04:15 1.1M
20260501T00Z_MSC_GDPS_WindSpeed_IsbL-0225_LatLon0.15_PT063H.grib2 2026-05-01 04:15 1.1M
20260501T00Z_MSC_GDPS_WindSpeed_IsbL-0250_LatLon0.15_PT063H.grib2 2026-05-01 04:15 1.1M
20260501T00Z_MSC_GDPS_WindSpeed_IsbL-0275_LatLon0.15_PT063H.grib2 2026-05-01 04:15 1.1M
20260501T00Z_MSC_GDPS_WindSpeed_IsbL-0300_LatLon0.15_PT063H.grib2 2026-05-01 04:15 1.1M
20260501T00Z_MSC_GDPS_WindSpeed_IsbL-0350_LatLon0.15_PT063H.grib2 2026-05-01 04:15 1.1M
20260501T00Z_MSC_GDPS_WindSpeed_IsbL-0400_LatLon0.15_PT063H.grib2 2026-05-01 04:15 1.1M
20260501T00Z_MSC_GDPS_WindSpeed_IsbL-0450_LatLon0.15_PT063H.grib2 2026-05-01 04:15 1.1M
20260501T00Z_MSC_GDPS_WindSpeed_IsbL-0500_LatLon0.15_PT063H.grib2 2026-05-01 04:15 1.1M
20260501T00Z_MSC_GDPS_WindSpeed_IsbL-0550_LatLon0.15_PT063H.grib2 2026-05-01 04:15 1.1M
20260501T00Z_MSC_GDPS_WindSpeed_IsbL-0600_LatLon0.15_PT063H.grib2 2026-05-01 04:15 1.4M
20260501T00Z_MSC_GDPS_WindSpeed_IsbL-0650_LatLon0.15_PT063H.grib2 2026-05-01 04:15 1.4M
20260501T00Z_MSC_GDPS_WindSpeed_IsbL-0700_LatLon0.15_PT063H.grib2 2026-05-01 04:15 1.5M
20260501T00Z_MSC_GDPS_WindSpeed_IsbL-0750_LatLon0.15_PT063H.grib2 2026-05-01 04:15 1.6M
20260501T00Z_MSC_GDPS_WindSpeed_IsbL-0800_LatLon0.15_PT063H.grib2 2026-05-01 04:15 1.7M
20260501T00Z_MSC_GDPS_WindSpeed_IsbL-0850_LatLon0.15_PT063H.grib2 2026-05-01 04:15 1.7M
20260501T00Z_MSC_GDPS_WindSpeed_IsbL-0875_LatLon0.15_PT063H.grib2 2026-05-01 04:15 1.8M
20260501T00Z_MSC_GDPS_WindSpeed_IsbL-0900_LatLon0.15_PT063H.grib2 2026-05-01 04:15 1.8M
20260501T00Z_MSC_GDPS_WindSpeed_IsbL-0925_LatLon0.15_PT063H.grib2 2026-05-01 04:15 1.9M
20260501T00Z_MSC_GDPS_WindSpeed_IsbL-0950_LatLon0.15_PT063H.grib2 2026-05-01 04:15 1.9M
20260501T00Z_MSC_GDPS_WindSpeed_IsbL-0970_LatLon0.15_PT063H.grib2 2026-05-01 04:15 1.9M
20260501T00Z_MSC_GDPS_WindSpeed_IsbL-0985_LatLon0.15_PT063H.grib2 2026-05-01 04:15 1.8M
20260501T00Z_MSC_GDPS_WindSpeed_IsbL-1000_LatLon0.15_PT063H.grib2 2026-05-01 04:15 1.8M
20260501T00Z_MSC_GDPS_WindSpeed_IsbL-1015_LatLon0.15_PT063H.grib2 2026-05-01 04:15 1.8M
20260501T00Z_MSC_GDPS_WindU_AGL-10m_LatLon0.15_PT063H.grib2 2026-05-01 04:15 1.3M
20260501T00Z_MSC_GDPS_WindU_AGL-120m_LatLon0.15_PT063H.grib2 2026-05-01 04:15 1.0M
20260501T00Z_MSC_GDPS_WindU_AGL-40m_LatLon0.15_PT063H.grib2 2026-05-01 04:15 970K
20260501T00Z_MSC_GDPS_WindU_AGL-80m_LatLon0.15_PT063H.grib2 2026-05-01 04:15 1.0M
20260501T00Z_MSC_GDPS_WindU_IsbL-0001_LatLon0.15_PT063H.grib2 2026-05-01 04:15 497K
20260501T00Z_MSC_GDPS_WindU_IsbL-0005_LatLon0.15_PT063H.grib2 2026-05-01 04:15 691K
20260501T00Z_MSC_GDPS_WindU_IsbL-0010_LatLon0.15_PT063H.grib2 2026-05-01 04:15 702K
20260501T00Z_MSC_GDPS_WindU_IsbL-0020_LatLon0.15_PT063H.grib2 2026-05-01 04:15 734K
20260501T00Z_MSC_GDPS_WindU_IsbL-0030_LatLon0.15_PT063H.grib2 2026-05-01 04:15 740K
20260501T00Z_MSC_GDPS_WindU_IsbL-0050_LatLon0.15_PT063H.grib2 2026-05-01 04:15 768K
20260501T00Z_MSC_GDPS_WindU_IsbL-0100_LatLon0.15_PT063H.grib2 2026-05-01 04:15 925K
20260501T00Z_MSC_GDPS_WindU_IsbL-0150_LatLon0.15_PT063H.grib2 2026-05-01 04:15 1.0M
20260501T00Z_MSC_GDPS_WindU_IsbL-0175_LatLon0.15_PT063H.grib2 2026-05-01 04:15 1.0M
20260501T00Z_MSC_GDPS_WindU_IsbL-0200_LatLon0.15_PT063H.grib2 2026-05-01 04:15 839K
20260501T00Z_MSC_GDPS_WindU_IsbL-0225_LatLon0.15_PT063H.grib2 2026-05-01 04:15 850K
20260501T00Z_MSC_GDPS_WindU_IsbL-0250_LatLon0.15_PT063H.grib2 2026-05-01 04:15 856K
20260501T00Z_MSC_GDPS_WindU_IsbL-0275_LatLon0.15_PT063H.grib2 2026-05-01 04:15 884K
20260501T00Z_MSC_GDPS_WindU_IsbL-0300_LatLon0.15_PT063H.grib2 2026-05-01 04:15 875K
20260501T00Z_MSC_GDPS_WindU_IsbL-0350_LatLon0.15_PT063H.grib2 2026-05-01 04:15 888K
20260501T00Z_MSC_GDPS_WindU_IsbL-0400_LatLon0.15_PT063H.grib2 2026-05-01 04:15 1.1M
20260501T00Z_MSC_GDPS_WindU_IsbL-0450_LatLon0.15_PT063H.grib2 2026-05-01 04:15 1.1M
20260501T00Z_MSC_GDPS_WindU_IsbL-0500_LatLon0.15_PT063H.grib2 2026-05-01 04:15 1.1M
20260501T00Z_MSC_GDPS_WindU_IsbL-0550_LatLon0.15_PT063H.grib2 2026-05-01 04:15 1.1M
20260501T00Z_MSC_GDPS_WindU_IsbL-0600_LatLon0.15_PT063H.grib2 2026-05-01 04:15 1.2M
20260501T00Z_MSC_GDPS_WindU_IsbL-0650_LatLon0.15_PT063H.grib2 2026-05-01 04:15 1.2M
20260501T00Z_MSC_GDPS_WindU_IsbL-0700_LatLon0.15_PT063H.grib2 2026-05-01 04:15 1.2M
20260501T00Z_MSC_GDPS_WindU_IsbL-0750_LatLon0.15_PT063H.grib2 2026-05-01 04:15 1.3M
20260501T00Z_MSC_GDPS_WindU_IsbL-0800_LatLon0.15_PT063H.grib2 2026-05-01 04:15 1.4M
20260501T00Z_MSC_GDPS_WindU_IsbL-0850_LatLon0.15_PT063H.grib2 2026-05-01 04:15 1.4M
20260501T00Z_MSC_GDPS_WindU_IsbL-0875_LatLon0.15_PT063H.grib2 2026-05-01 04:15 1.5M
20260501T00Z_MSC_GDPS_WindU_IsbL-0900_LatLon0.15_PT063H.grib2 2026-05-01 04:15 1.5M
20260501T00Z_MSC_GDPS_WindU_IsbL-0925_LatLon0.15_PT063H.grib2 2026-05-01 04:15 1.5M
20260501T00Z_MSC_GDPS_WindU_IsbL-0950_LatLon0.15_PT063H.grib2 2026-05-01 04:15 1.4M
20260501T00Z_MSC_GDPS_WindU_IsbL-0970_LatLon0.15_PT063H.grib2 2026-05-01 04:15 1.4M
20260501T00Z_MSC_GDPS_WindU_IsbL-0985_LatLon0.15_PT063H.grib2 2026-05-01 04:15 1.4M
20260501T00Z_MSC_GDPS_WindU_IsbL-1000_LatLon0.15_PT063H.grib2 2026-05-01 04:15 1.4M
20260501T00Z_MSC_GDPS_WindU_IsbL-1015_LatLon0.15_PT063H.grib2 2026-05-01 04:15 1.4M
20260501T00Z_MSC_GDPS_WindV_AGL-10m_LatLon0.15_PT063H.grib2 2026-05-01 04:15 1.3M
20260501T00Z_MSC_GDPS_WindV_AGL-120m_LatLon0.15_PT063H.grib2 2026-05-01 04:15 967K
20260501T00Z_MSC_GDPS_WindV_AGL-40m_LatLon0.15_PT063H.grib2 2026-05-01 04:15 962K
20260501T00Z_MSC_GDPS_WindV_AGL-80m_LatLon0.15_PT063H.grib2 2026-05-01 04:15 967K
20260501T00Z_MSC_GDPS_WindV_IsbL-0001_LatLon0.15_PT063H.grib2 2026-05-01 04:15 710K
20260501T00Z_MSC_GDPS_WindV_IsbL-0005_LatLon0.15_PT063H.grib2 2026-05-01 04:15 856K
20260501T00Z_MSC_GDPS_WindV_IsbL-0010_LatLon0.15_PT063H.grib2 2026-05-01 04:15 884K
20260501T00Z_MSC_GDPS_WindV_IsbL-0020_LatLon0.15_PT063H.grib2 2026-05-01 04:15 936K
20260501T00Z_MSC_GDPS_WindV_IsbL-0030_LatLon0.15_PT063H.grib2 2026-05-01 04:15 938K
20260501T00Z_MSC_GDPS_WindV_IsbL-0050_LatLon0.15_PT063H.grib2 2026-05-01 04:15 1.0M
20260501T00Z_MSC_GDPS_WindV_IsbL-0100_LatLon0.15_PT063H.grib2 2026-05-01 04:15 859K
20260501T00Z_MSC_GDPS_WindV_IsbL-0150_LatLon0.15_PT063H.grib2 2026-05-01 04:15 1.0M
20260501T00Z_MSC_GDPS_WindV_IsbL-0175_LatLon0.15_PT063H.grib2 2026-05-01 04:15 1.0M
20260501T00Z_MSC_GDPS_WindV_IsbL-0200_LatLon0.15_PT063H.grib2 2026-05-01 04:15 839K
20260501T00Z_MSC_GDPS_WindV_IsbL-0225_LatLon0.15_PT063H.grib2 2026-05-01 04:15 846K
20260501T00Z_MSC_GDPS_WindV_IsbL-0250_LatLon0.15_PT063H.grib2 2026-05-01 04:15 846K
20260501T00Z_MSC_GDPS_WindV_IsbL-0275_LatLon0.15_PT063H.grib2 2026-05-01 04:15 932K
20260501T00Z_MSC_GDPS_WindV_IsbL-0300_LatLon0.15_PT063H.grib2 2026-05-01 04:15 923K
20260501T00Z_MSC_GDPS_WindV_IsbL-0350_LatLon0.15_PT063H.grib2 2026-05-01 04:15 876K
20260501T00Z_MSC_GDPS_WindV_IsbL-0400_LatLon0.15_PT063H.grib2 2026-05-01 04:15 878K
20260501T00Z_MSC_GDPS_WindV_IsbL-0450_LatLon0.15_PT063H.grib2 2026-05-01 04:15 880K
20260501T00Z_MSC_GDPS_WindV_IsbL-0500_LatLon0.15_PT063H.grib2 2026-05-01 04:15 1.1M
20260501T00Z_MSC_GDPS_WindV_IsbL-0550_LatLon0.15_PT063H.grib2 2026-05-01 04:15 1.1M
20260501T00Z_MSC_GDPS_WindV_IsbL-0600_LatLon0.15_PT063H.grib2 2026-05-01 04:15 1.1M
20260501T00Z_MSC_GDPS_WindV_IsbL-0650_LatLon0.15_PT063H.grib2 2026-05-01 04:15 1.2M
20260501T00Z_MSC_GDPS_WindV_IsbL-0700_LatLon0.15_PT063H.grib2 2026-05-01 04:15 1.2M
20260501T00Z_MSC_GDPS_WindV_IsbL-0750_LatLon0.15_PT063H.grib2 2026-05-01 04:15 1.3M
20260501T00Z_MSC_GDPS_WindV_IsbL-0800_LatLon0.15_PT063H.grib2 2026-05-01 04:15 1.3M
20260501T00Z_MSC_GDPS_WindV_IsbL-0850_LatLon0.15_PT063H.grib2 2026-05-01 04:15 1.4M
20260501T00Z_MSC_GDPS_WindV_IsbL-0875_LatLon0.15_PT063H.grib2 2026-05-01 04:15 1.4M
20260501T00Z_MSC_GDPS_WindV_IsbL-0900_LatLon0.15_PT063H.grib2 2026-05-01 04:15 1.4M
20260501T00Z_MSC_GDPS_WindV_IsbL-0925_LatLon0.15_PT063H.grib2 2026-05-01 04:15 1.4M
20260501T00Z_MSC_GDPS_WindV_IsbL-0950_LatLon0.15_PT063H.grib2 2026-05-01 04:15 1.4M
20260501T00Z_MSC_GDPS_WindV_IsbL-0970_LatLon0.15_PT063H.grib2 2026-05-01 04:15 1.4M
20260501T00Z_MSC_GDPS_WindV_IsbL-0985_LatLon0.15_PT063H.grib2 2026-05-01 04:15 1.4M
20260501T00Z_MSC_GDPS_WindV_IsbL-1000_LatLon0.15_PT063H.grib2 2026-05-01 04:15 1.4M
20260501T00Z_MSC_GDPS_WindV_IsbL-1015_LatLon0.15_PT063H.grib2 2026-05-01 04:15 1.3M